MSR767 HECA-LEBL

Flight info

Callsign MSR767
Flight time 4h 21m
Altitude 36000
Route CVO L617 NABSI M872 ITEXO DCT METRU UL81 LORNO DCT PEROS DCT DORAS DCT QUENN DCT EPIKU DCT GINOX DCT KIFMI/N0399F280 DCT ELVOP DCT MUREN/N0413F290 M601 VERSO
Aircraft A320/M-SDE3FGHIRWY/LB1

Departure

Time 2026-05-05 13:15
Airport Cairo International Airport (HECA)

Arrival

Time 2026-05-05 17:36
Airport Josep Tarradellas Barcelona-El Prat Airport (LEBL)
Time Latitude Longitude Altitude Speed Heading
2026-05-05 12:51 30.10736 31.39682 370 ft 0 kts 256°
2026-05-05 13:06 30.10738 31.39693 372 ft 4 kts 255°
2026-05-05 13:06 30.10746 31.39723 370 ft 4 kts 256°
2026-05-05 13:06 30.10753 31.39753 373 ft 4 kts 242°
2026-05-05 13:06 30.10768 31.39773 373 ft 4 kts 188°
2026-05-05 13:07 30.10779 31.39773 371 ft 0 kts 166°
2026-05-05 13:09 30.10776 31.39774 370 ft 1 kts 166°
2026-05-05 13:09 30.10750 31.39782 371 ft 6 kts 165°
2026-05-05 13:09 30.10704 31.39796 372 ft 8 kts 165°
2026-05-05 13:09 30.10647 31.39813 372 ft 9 kts 165°
2026-05-05 13:10 30.10590 31.39831 372 ft 7 kts 165°
2026-05-05 13:10 30.10545 31.39844 374 ft 9 kts 165°
2026-05-05 13:10 30.10478 31.39865 377 ft 10 kts 165°
2026-05-05 13:10 30.10434 31.39873 379 ft 9 kts 186°
2026-05-05 13:11 30.10378 31.39821 380 ft 11 kts 229°
2026-05-05 13:11 30.10310 31.39732 384 ft 10 kts 229°
2026-05-05 13:11 30.10283 31.39696 385 ft 9 kts 229°
2026-05-05 13:11 30.10241 31.39640 387 ft 9 kts 229°
2026-05-05 13:12 30.10202 31.39588 388 ft 9 kts 229°
2026-05-05 13:12 30.10142 31.39575 389 ft 10 kts 154°
2026-05-05 13:12 30.10082 31.39629 389 ft 12 kts 140°
2026-05-05 13:12 30.10018 31.39697 388 ft 13 kts 125°
2026-05-05 13:13 30.09999 31.39796 388 ft 11 kts 83°
2026-05-05 13:13 30.10012 31.39889 388 ft 12 kts 68°
2026-05-05 13:13 30.10062 31.39955 388 ft 10 kts 48°
2026-05-05 13:13 30.10122 31.40037 388 ft 29 kts 51°
2026-05-05 13:14 30.10411 31.40420 390 ft 95 kts 49°
2026-05-05 13:14 30.10962 31.41152 389 ft 144 kts 48°
2026-05-05 13:14 30.11707 31.42153 414 ft 181 kts 44°
2026-05-05 13:14 30.12545 31.43275 841 ft 188 kts 43°
2026-05-05 13:15 30.13501 31.44290 1453 ft 188 kts 25°
2026-05-05 13:15 30.14812 31.44583 1737 ft 203 kts 349°
2026-05-05 13:15 30.16153 31.43923 2030 ft 223 kts 318°
2026-05-05 13:15 30.17300 31.42581 2361 ft 245 kts 314°
2026-05-05 13:16 30.18490 31.41140 3107 ft 250 kts 314°
2026-05-05 13:16 30.19693 31.39681 4027 ft 250 kts 313°
2026-05-05 13:16 30.20901 31.38219 4900 ft 252 kts 313°
2026-05-05 13:16 30.22121 31.36746 5704 ft 256 kts 313°
2026-05-05 13:17 30.23368 31.35240 6456 ft 261 kts 314°
2026-05-05 13:17 30.24629 31.33716 7199 ft 263 kts 313°
2026-05-05 13:17 30.25902 31.32175 7944 ft 266 kts 313°
2026-05-05 13:17 30.27186 31.30621 8696 ft 268 kts 313°
2026-05-05 13:18 30.28480 31.29055 9476 ft 271 kts 314°
2026-05-05 13:18 30.29788 31.27476 10193 ft 273 kts 313°
2026-05-05 13:18 30.31147 31.25833 10422 ft 293 kts 313°
2026-05-05 13:18 30.32608 31.24062 10550 ft 315 kts 313°
2026-05-05 13:19 30.34120 31.22228 10787 ft 330 kts 313°
2026-05-05 13:19 30.35721 31.20288 11321 ft 335 kts 313°
2026-05-05 13:19 30.37341 31.18326 11959 ft 338 kts 313°
2026-05-05 13:19 30.38970 31.16348 12587 ft 341 kts 312°
2026-05-05 13:20 30.40610 31.14354 13214 ft 343 kts 312°
2026-05-05 13:20 30.42266 31.12344 13837 ft 346 kts 312°
2026-05-05 13:20 30.43932 31.10323 14376 ft 348 kts 311°
2026-05-05 13:20 30.45608 31.08285 14933 ft 350 kts 311°
2026-05-05 13:21 30.47291 31.06238 15458 ft 352 kts 311°
2026-05-05 13:21 30.48986 31.04176 16008 ft 354 kts 311°
2026-05-05 13:21 30.50688 31.02104 16586 ft 355 kts 311°
2026-05-05 13:21 30.52394 31.00025 17170 ft 356 kts 311°
2026-05-05 13:22 30.54108 30.97940 17770 ft 358 kts 311°
2026-05-05 13:22 30.55825 30.95847 18383 ft 359 kts 311°
2026-05-05 13:22 30.57548 30.93744 18908 ft 360 kts 311°
2026-05-05 13:22 30.59277 30.91630 19448 ft 362 kts 310°
2026-05-05 13:23 30.61013 30.89504 19984 ft 363 kts 310°
2026-05-05 13:23 30.62752 30.87371 20508 ft 365 kts 310°
2026-05-05 13:23 30.64501 30.85231 21011 ft 366 kts 310°
2026-05-05 13:23 30.66258 30.83080 21491 ft 368 kts 310°
2026-05-05 13:24 30.68021 30.80922 21959 ft 369 kts 310°
2026-05-05 13:24 30.69792 30.78753 22410 ft 371 kts 310°
2026-05-05 13:24 30.71570 30.76574 22854 ft 372 kts 310°
2026-05-05 13:24 30.73356 30.74384 23226 ft 376 kts 309°
2026-05-05 13:25 30.75174 30.72152 23361 ft 384 kts 309°
2026-05-05 13:25 30.77026 30.69878 23498 ft 391 kts 309°
2026-05-05 13:25 30.78911 30.67565 23631 ft 397 kts 310°
2026-05-05 13:25 30.80827 30.65215 23750 ft 403 kts 310°
2026-05-05 13:26 30.82766 30.62831 23884 ft 409 kts 310°
2026-05-05 13:26 30.84730 30.60411 24004 ft 414 kts 310°
2026-05-05 13:26 30.86690 30.57994 24118 ft 418 kts 310°
2026-05-05 13:26 30.88696 30.55521 24234 ft 423 kts 310°
2026-05-05 13:27 30.90719 30.53026 24428 ft 424 kts 310°
2026-05-05 13:27 30.92743 30.50527 24715 ft 424 kts 310°
2026-05-05 13:27 30.94763 30.48036 25026 ft 423 kts 310°
2026-05-05 13:27 30.96781 30.45550 25352 ft 421 kts 310°
2026-05-05 13:28 30.98789 30.43073 25677 ft 420 kts 310°
2026-05-05 13:28 31.00789 30.40602 26025 ft 418 kts 310°
2026-05-05 13:28 31.02780 30.38137 26382 ft 417 kts 310°
2026-05-05 13:28 31.04761 30.35682 26752 ft 415 kts 310°
2026-05-05 13:29 31.06736 30.33234 27110 ft 413 kts 309°
2026-05-05 13:29 31.08515 30.30630 27462 ft 409 kts 300°
2026-05-05 13:29 31.09827 30.27717 27825 ft 405 kts 291°
2026-05-05 13:29 31.10721 30.24610 28192 ft 403 kts 287°
2026-05-05 13:30 31.11564 30.21494 28568 ft 402 kts 287°
2026-05-05 13:30 31.12411 30.18390 28952 ft 401 kts 287°
2026-05-05 13:30 31.13256 30.15300 29341 ft 399 kts 287°
2026-05-05 13:30 31.14099 30.12221 29728 ft 398 kts 287°
2026-05-05 13:31 31.14940 30.09148 30143 ft 396 kts 288°
2026-05-05 13:31 31.15775 30.06088 30486 ft 395 kts 287°
2026-05-05 13:31 31.16604 30.03038 30759 ft 395 kts 287°
2026-05-05 13:31 31.17439 29.99962 30883 ft 399 kts 287°
2026-05-05 13:32 31.18294 29.96872 31005 ft 402 kts 290°
2026-05-05 13:32 31.19522 29.93930 31126 ft 406 kts 300°
2026-05-05 13:32 31.21162 29.91232 31253 ft 409 kts 303°
2026-05-05 13:32 31.22844 29.88548 31376 ft 410 kts 303°
2026-05-05 13:33 31.24528 29.85855 31502 ft 411 kts 303°
2026-05-05 13:33 31.26217 29.83150 31621 ft 412 kts 303°
2026-05-05 13:33 31.27906 29.80442 31783 ft 413 kts 303°
2026-05-05 13:33 31.29598 29.77729 31908 ft 413 kts 303°
2026-05-05 13:34 31.31288 29.75016 32032 ft 413 kts 303°
2026-05-05 13:34 31.32976 29.72303 32167 ft 413 kts 303°
2026-05-05 13:34 31.34664 29.69585 32283 ft 413 kts 303°
2026-05-05 13:34 31.36348 29.66871 32413 ft 412 kts 303°
2026-05-05 13:35 31.38026 29.64171 32849 ft 403 kts 303°
2026-05-05 13:35 31.39636 29.61589 33834 ft 388 kts 302°
2026-05-05 13:35 31.41231 29.59022 33989 ft 391 kts 302°
2026-05-05 13:35 31.42833 29.56433 34114 ft 394 kts 302°
2026-05-05 13:36 31.44444 29.53828 34234 ft 396 kts 302°
2026-05-05 13:36 31.46065 29.51206 34350 ft 398 kts 303°
2026-05-05 13:36 31.47693 29.48576 34463 ft 400 kts 303°
2026-05-05 13:36 31.49326 29.45936 34593 ft 401 kts 303°
2026-05-05 13:37 31.50969 29.43282 34705 ft 402 kts 303°
2026-05-05 13:37 31.52612 29.40629 34821 ft 403 kts 302°
2026-05-05 13:37 31.54260 29.37965 34942 ft 404 kts 302°
2026-05-05 13:37 31.55909 29.35294 35063 ft 405 kts 302°
2026-05-05 13:38 31.57558 29.32617 35178 ft 405 kts 302°
2026-05-05 13:38 31.59206 29.29934 35304 ft 406 kts 302°
2026-05-05 13:38 31.60855 29.27246 35426 ft 406 kts 302°
2026-05-05 13:38 31.62505 29.24556 35542 ft 406 kts 303°
2026-05-05 13:39 31.64153 29.21865 35663 ft 406 kts 302°
2026-05-05 13:39 31.65799 29.19174 35785 ft 406 kts 302°
2026-05-05 13:39 31.67445 29.16480 35910 ft 406 kts 302°
2026-05-05 13:39 31.69088 29.13789 36081 ft 405 kts 302°
2026-05-05 13:40 31.72362 29.08419 36106 ft 408 kts 303°
2026-05-05 13:40 31.75681 29.02992 36104 ft 409 kts 303°
2026-05-05 13:41 31.78998 28.97557 36105 ft 409 kts 302°
2026-05-05 13:41 31.82312 28.92112 36102 ft 409 kts 303°
2026-05-05 13:42 31.85630 28.86660 36104 ft 410 kts 303°
2026-05-05 13:42 31.88896 28.81284 36102 ft 393 kts 303°
2026-05-05 13:43 31.92035 28.76106 36109 ft 386 kts 302°
2026-05-05 13:43 31.95147 28.70957 36109 ft 386 kts 302°
2026-05-05 13:44 31.98254 28.65805 36102 ft 386 kts 303°
2026-05-05 13:44 32.01367 28.60651 36104 ft 386 kts 303°
2026-05-05 13:45 32.04479 28.55496 36107 ft 386 kts 303°
2026-05-05 13:45 32.07586 28.50324 36108 ft 386 kts 302°
2026-05-05 13:46 32.10692 28.45147 36150 ft 387 kts 303°
2026-05-05 13:46 32.13800 28.39967 36140 ft 387 kts 303°
2026-05-05 13:47 32.16908 28.34786 36127 ft 387 kts 303°
2026-05-05 13:47 32.20020 28.29603 36126 ft 387 kts 303°
2026-05-05 13:48 32.23124 28.24418 36126 ft 386 kts 303°
2026-05-05 13:48 32.26219 28.19228 36124 ft 386 kts 303°
2026-05-05 13:49 32.29310 28.14039 36124 ft 386 kts 303°
2026-05-05 13:49 32.32382 28.08880 36124 ft 386 kts 303°
2026-05-05 13:50 32.35473 28.03684 36123 ft 386 kts 303°
2026-05-05 13:50 32.38565 27.98480 36123 ft 387 kts 303°
2026-05-05 13:51 32.41656 27.93272 36118 ft 387 kts 303°
2026-05-05 13:51 32.44743 27.88059 36119 ft 387 kts 303°
2026-05-05 13:52 32.47830 27.82839 36123 ft 387 kts 303°
2026-05-05 13:52 32.50909 27.77611 36142 ft 387 kts 303°
2026-05-05 13:53 32.53995 27.72374 36131 ft 388 kts 303°
2026-05-05 13:53 32.57091 27.67134 36126 ft 388 kts 303°
2026-05-05 13:54 32.60183 27.61885 36127 ft 388 kts 303°
2026-05-05 13:54 32.63268 27.56627 36125 ft 388 kts 303°
2026-05-05 13:55 32.66353 27.51362 36122 ft 388 kts 303°
2026-05-05 13:55 32.69433 27.46094 36114 ft 388 kts 303°
2026-05-05 13:56 32.72511 27.40823 36116 ft 388 kts 303°
2026-05-05 13:56 32.75587 27.35545 36117 ft 389 kts 303°
2026-05-05 13:57 32.78664 27.30266 36118 ft 389 kts 303°
2026-05-05 13:57 32.81740 27.24976 36116 ft 389 kts 303°
2026-05-05 13:58 32.84815 27.19684 36122 ft 389 kts 303°
2026-05-05 13:58 32.87365 27.15286 36115 ft 389 kts 303°
2026-05-05 13:59 32.91960 27.07323 36111 ft 389 kts 303°
2026-05-05 14:00 32.96562 26.99348 36115 ft 390 kts 303°
2026-05-05 14:00 32.99625 26.94020 36121 ft 390 kts 303°
2026-05-05 14:01 33.02691 26.88680 36123 ft 390 kts 303°
2026-05-05 14:01 33.05756 26.83334 36113 ft 391 kts 303°
2026-05-05 14:02 33.08814 26.77981 36120 ft 391 kts 303°
2026-05-05 14:02 33.11874 26.72621 36119 ft 391 kts 303°
2026-05-05 14:03 33.14936 26.67268 36116 ft 391 kts 303°
2026-05-05 14:03 33.18000 26.61912 36116 ft 391 kts 303°
2026-05-05 14:04 33.21030 26.56581 36120 ft 391 kts 303°
2026-05-05 14:04 33.24081 26.51201 36120 ft 391 kts 303°
2026-05-05 14:05 33.27140 26.45811 36118 ft 392 kts 303°
2026-05-05 14:05 33.30197 26.40408 36130 ft 393 kts 303°
2026-05-05 14:06 33.33256 26.34990 36130 ft 393 kts 303°
2026-05-05 14:06 33.36321 26.29574 36127 ft 393 kts 303°
2026-05-05 14:07 33.39386 26.24159 36120 ft 393 kts 303°
2026-05-05 14:07 33.42440 26.18736 36120 ft 393 kts 303°
2026-05-05 14:08 33.45498 26.13303 36123 ft 394 kts 303°
2026-05-05 14:08 33.48556 26.07859 36121 ft 394 kts 303°
2026-05-05 14:09 33.51608 26.02405 36121 ft 394 kts 303°
2026-05-05 14:09 33.54663 25.96953 36121 ft 394 kts 303°
2026-05-05 14:10 33.57719 25.91494 36117 ft 394 kts 303°
2026-05-05 14:10 33.60765 25.86037 36124 ft 394 kts 303°
2026-05-05 14:11 33.63808 25.80571 36117 ft 394 kts 303°
2026-05-05 14:11 33.66849 25.75098 36123 ft 394 kts 303°
2026-05-05 14:12 33.69885 25.69625 36150 ft 394 kts 304°
2026-05-05 14:12 33.72930 25.64149 36140 ft 394 kts 304°
2026-05-05 14:13 33.75973 25.58677 36120 ft 394 kts 304°
2026-05-05 14:13 33.78986 25.53228 36118 ft 394 kts 303°
2026-05-05 14:14 33.82015 25.47740 36126 ft 394 kts 303°
2026-05-05 14:14 33.85045 25.42245 36127 ft 394 kts 303°
2026-05-05 14:15 33.88074 25.36744 36121 ft 394 kts 303°
2026-05-05 14:15 33.91104 25.31247 36119 ft 394 kts 304°
2026-05-05 14:16 33.94127 25.25744 36122 ft 394 kts 303°
2026-05-05 14:16 33.97145 25.20226 36123 ft 394 kts 303°
2026-05-05 14:17 34.00157 25.14705 36121 ft 394 kts 304°
2026-05-05 14:17 34.03309 25.09299 36121 ft 394 kts 306°
2026-05-05 14:18 34.06580 25.03990 36125 ft 394 kts 306°
2026-05-05 14:18 34.09835 24.98664 36128 ft 394 kts 306°
2026-05-05 14:19 34.13059 24.93303 36121 ft 395 kts 306°
2026-05-05 14:19 34.16267 24.87924 36120 ft 395 kts 306°
2026-05-05 14:20 34.19478 24.82546 36122 ft 395 kts 306°
2026-05-05 14:20 34.22690 24.77162 36122 ft 395 kts 306°
2026-05-05 14:21 34.25901 24.71777 36123 ft 395 kts 306°
2026-05-05 14:21 34.29109 24.66388 36124 ft 395 kts 306°
2026-05-05 14:22 34.32314 24.60988 36126 ft 395 kts 306°
2026-05-05 14:22 34.35518 24.55592 36126 ft 395 kts 306°
2026-05-05 14:23 34.38703 24.50228 36125 ft 395 kts 306°
2026-05-05 14:23 34.41924 24.44788 36126 ft 395 kts 306°
2026-05-05 14:24 34.45096 24.39411 36122 ft 395 kts 306°
2026-05-05 14:24 34.48288 24.33991 36125 ft 395 kts 306°
2026-05-05 14:25 34.51483 24.28566 36127 ft 395 kts 306°
2026-05-05 14:25 34.54695 24.23101 36126 ft 395 kts 306°
2026-05-05 14:26 34.57884 24.17664 36124 ft 395 kts 306°
2026-05-05 14:26 34.61054 24.12260 36130 ft 395 kts 306°
2026-05-05 14:27 34.64240 24.06819 36122 ft 395 kts 306°
2026-05-05 14:27 34.67427 24.01372 36125 ft 396 kts 306°
2026-05-05 14:28 34.70607 23.95913 36124 ft 396 kts 306°
2026-05-05 14:28 34.73791 23.90451 36126 ft 396 kts 306°
2026-05-05 14:29 34.76970 23.84984 36128 ft 396 kts 306°
2026-05-05 14:29 34.80145 23.79510 36130 ft 396 kts 306°
2026-05-05 14:30 34.83325 23.74042 36130 ft 396 kts 306°
2026-05-05 14:30 34.86501 23.68565 36131 ft 396 kts 306°
2026-05-05 14:31 34.89668 23.63075 36132 ft 396 kts 306°
2026-05-05 14:31 34.92836 23.57581 36134 ft 396 kts 306°
2026-05-05 14:32 34.96004 23.52084 36133 ft 396 kts 306°
2026-05-05 14:32 34.99169 23.46587 36137 ft 396 kts 306°
2026-05-05 14:33 35.02331 23.41080 36126 ft 396 kts 306°
2026-05-05 14:33 35.05493 23.35573 36131 ft 396 kts 306°
2026-05-05 14:34 35.08655 23.30058 36136 ft 396 kts 306°
2026-05-05 14:34 35.11810 23.24539 36138 ft 396 kts 305°
2026-05-05 14:35 35.14964 23.19008 36140 ft 396 kts 305°
2026-05-05 14:35 35.18112 23.13480 36140 ft 396 kts 305°
2026-05-05 14:36 35.21261 23.07946 36143 ft 396 kts 306°
2026-05-05 14:36 35.24409 23.02414 36144 ft 396 kts 305°
2026-05-05 14:37 35.27530 22.96915 36143 ft 396 kts 305°
2026-05-05 14:37 35.30670 22.91378 36145 ft 396 kts 305°
2026-05-05 14:38 35.33807 22.85837 36141 ft 396 kts 305°
2026-05-05 14:38 35.36939 22.80289 36142 ft 396 kts 305°
2026-05-05 14:39 35.40068 22.74733 36130 ft 396 kts 305°
2026-05-05 14:39 35.43196 22.69178 36135 ft 396 kts 305°
2026-05-05 14:40 35.46319 22.63618 36138 ft 396 kts 305°
2026-05-05 14:40 35.49444 22.58053 36141 ft 396 kts 305°
2026-05-05 14:41 35.52563 22.52489 36140 ft 396 kts 305°
2026-05-05 14:41 35.55675 22.46912 36162 ft 396 kts 305°
2026-05-05 14:42 35.58788 22.41338 36149 ft 395 kts 305°
2026-05-05 14:42 35.61901 22.35764 36149 ft 395 kts 305°
2026-05-05 14:43 35.65002 22.30188 36151 ft 395 kts 305°
2026-05-05 14:43 35.68098 22.24607 36146 ft 395 kts 305°
2026-05-05 14:44 35.71192 22.19024 36142 ft 395 kts 305°
2026-05-05 14:44 35.73763 22.14384 36148 ft 395 kts 305°
2026-05-05 14:45 35.76858 22.08801 36138 ft 395 kts 304°
2026-05-05 14:45 35.79949 22.03209 36142 ft 395 kts 304°
2026-05-05 14:46 35.83038 21.97619 36149 ft 395 kts 304°
2026-05-05 14:46 35.86120 21.92017 36150 ft 395 kts 304°
2026-05-05 14:47 35.89194 21.86408 36145 ft 395 kts 304°
2026-05-05 14:47 35.92270 21.80799 36162 ft 395 kts 304°
2026-05-05 14:48 35.95347 21.75187 36147 ft 395 kts 304°
2026-05-05 14:48 35.98420 21.69574 36146 ft 395 kts 304°
2026-05-05 14:49 36.01485 21.63954 36148 ft 395 kts 304°
2026-05-05 14:49 36.04551 21.58329 36151 ft 395 kts 304°
2026-05-05 14:50 36.07616 21.52701 36152 ft 395 kts 304°
2026-05-05 14:50 36.10676 21.47063 36148 ft 395 kts 304°
2026-05-05 14:51 36.13730 21.41423 36149 ft 395 kts 304°
2026-05-05 14:51 36.16789 21.35784 36151 ft 395 kts 304°
2026-05-05 14:52 36.19844 21.30142 36145 ft 395 kts 304°
2026-05-05 14:52 36.22875 21.24526 36147 ft 395 kts 304°
2026-05-05 14:53 36.25916 21.18867 36152 ft 395 kts 304°
2026-05-05 14:53 36.28963 21.13210 36152 ft 395 kts 303°
2026-05-05 14:54 36.32006 21.07545 36149 ft 395 kts 303°
2026-05-05 14:54 36.35051 21.01876 36152 ft 395 kts 303°
2026-05-05 14:55 36.38089 20.96200 36152 ft 395 kts 303°
2026-05-05 14:55 36.41123 20.90513 36150 ft 395 kts 303°
2026-05-05 14:56 36.44156 20.84824 36156 ft 395 kts 303°
2026-05-05 14:56 36.47191 20.79135 36140 ft 395 kts 303°
2026-05-05 14:57 36.50219 20.73434 36141 ft 395 kts 303°
2026-05-05 14:57 36.53245 20.67723 36144 ft 395 kts 303°
2026-05-05 14:58 36.56276 20.62014 36148 ft 395 kts 303°
2026-05-05 14:58 36.59304 20.56302 36147 ft 395 kts 303°
2026-05-05 14:59 36.62305 20.50617 36151 ft 395 kts 303°
2026-05-05 14:59 36.65342 20.44854 36148 ft 396 kts 302°
2026-05-05 15:00 36.67843 20.40086 36152 ft 396 kts 302°
2026-05-05 15:00 36.71360 20.33376 36145 ft 396 kts 302°
2026-05-05 15:01 36.74353 20.27675 36145 ft 396 kts 303°
2026-05-05 15:01 36.77367 20.21932 36148 ft 396 kts 302°
2026-05-05 15:02 36.80373 20.16178 36156 ft 396 kts 302°
2026-05-05 15:02 36.83378 20.10419 36128 ft 396 kts 302°
2026-05-05 15:03 36.86388 20.04645 36131 ft 397 kts 302°
2026-05-05 15:03 36.89402 19.98850 36129 ft 398 kts 302°
2026-05-05 15:04 36.92419 19.93045 36142 ft 398 kts 302°
2026-05-05 15:04 36.95431 19.87229 36161 ft 399 kts 302°
2026-05-05 15:05 36.99944 19.78485 36131 ft 399 kts 302°
2026-05-05 15:06 37.02959 19.72644 36136 ft 400 kts 302°
2026-05-05 15:06 37.05984 19.66785 36134 ft 401 kts 302°
2026-05-05 15:07 37.09005 19.60909 36130 ft 401 kts 302°
2026-05-05 15:07 37.12022 19.55025 36134 ft 402 kts 302°
2026-05-05 15:08 37.15039 19.49131 36140 ft 402 kts 302°
2026-05-05 15:08 37.18058 19.43230 36133 ft 402 kts 302°
2026-05-05 15:09 37.21078 19.37321 36128 ft 403 kts 302°
2026-05-05 15:09 37.24105 19.31408 36129 ft 403 kts 302°
2026-05-05 15:10 37.27120 19.25479 36132 ft 403 kts 302°
2026-05-05 15:10 37.30130 19.19537 36146 ft 403 kts 302°
2026-05-05 15:11 37.33137 19.13597 36149 ft 403 kts 302°
2026-05-05 15:11 37.36138 19.07657 36140 ft 403 kts 302°
2026-05-05 15:12 37.39140 19.01701 36131 ft 403 kts 302°
2026-05-05 15:12 37.41837 18.95526 36128 ft 403 kts 297°
2026-05-05 15:13 37.44406 18.89250 36127 ft 403 kts 297°
2026-05-05 15:13 37.46965 18.82967 36127 ft 404 kts 297°
2026-05-05 15:14 37.49504 18.76716 36125 ft 404 kts 296°
2026-05-05 15:14 37.52062 18.70412 36120 ft 404 kts 296°
2026-05-05 15:15 37.54622 18.64101 36117 ft 405 kts 296°
2026-05-05 15:15 37.57197 18.57731 36120 ft 405 kts 296°
2026-05-05 15:16 37.59741 18.51437 36124 ft 405 kts 296°
2026-05-05 15:16 37.62294 18.45097 36125 ft 406 kts 296°
2026-05-05 15:17 37.64839 18.38746 36117 ft 405 kts 296°
2026-05-05 15:17 37.67383 18.32397 36135 ft 405 kts 296°
2026-05-05 15:18 37.69926 18.26041 36125 ft 406 kts 296°
2026-05-05 15:18 37.72480 18.19682 36124 ft 406 kts 296°
2026-05-05 15:19 37.75028 18.13315 36125 ft 406 kts 296°
2026-05-05 15:19 37.77560 18.06933 36125 ft 406 kts 296°
2026-05-05 15:20 37.80084 18.00545 36123 ft 406 kts 296°
2026-05-05 15:20 37.82613 17.94156 36119 ft 406 kts 296°
2026-05-05 15:21 37.85143 17.87769 36116 ft 406 kts 296°
2026-05-05 15:21 37.87669 17.81376 36115 ft 406 kts 296°
2026-05-05 15:22 37.90189 17.74977 36117 ft 406 kts 296°
2026-05-05 15:22 37.92706 17.68575 36116 ft 406 kts 296°
2026-05-05 15:23 37.95212 17.62181 36122 ft 405 kts 296°
2026-05-05 15:23 37.97711 17.55790 36117 ft 405 kts 296°
2026-05-05 15:24 38.00211 17.49397 36118 ft 404 kts 296°
2026-05-05 15:24 38.02684 17.43045 36114 ft 404 kts 296°
2026-05-05 15:25 38.05169 17.36650 36116 ft 404 kts 296°
2026-05-05 15:25 38.07657 17.30243 36104 ft 405 kts 296°
2026-05-05 15:26 38.10142 17.23828 36100 ft 405 kts 295°
2026-05-05 15:26 38.12624 17.17402 36096 ft 405 kts 295°
2026-05-05 15:27 38.15124 17.10924 36091 ft 406 kts 295°
2026-05-05 15:27 38.17583 17.04524 36090 ft 406 kts 296°
2026-05-05 15:28 38.20057 16.98084 36097 ft 405 kts 296°
2026-05-05 15:28 38.22529 16.91648 36099 ft 405 kts 296°
2026-05-05 15:29 38.24999 16.85213 36098 ft 405 kts 295°
2026-05-05 15:29 38.27458 16.78767 36093 ft 405 kts 295°
2026-05-05 15:30 38.29909 16.72320 36093 ft 405 kts 295°
2026-05-05 15:30 38.32361 16.65876 36089 ft 404 kts 295°
2026-05-05 15:31 38.34409 16.60480 36097 ft 404 kts 295°
2026-05-05 15:31 38.36824 16.54083 36096 ft 403 kts 295°
2026-05-05 15:32 38.39260 16.47641 36095 ft 403 kts 295°
2026-05-05 15:32 38.41694 16.41198 36108 ft 403 kts 295°
2026-05-05 15:33 38.44115 16.34750 36097 ft 403 kts 295°
2026-05-05 15:33 38.46533 16.28301 36096 ft 403 kts 295°
2026-05-05 15:34 38.48950 16.21858 36101 ft 402 kts 295°
2026-05-05 15:34 38.51362 16.15415 36109 ft 402 kts 295°
2026-05-05 15:35 38.53768 16.08970 36102 ft 402 kts 294°
2026-05-05 15:35 38.56162 16.02525 36097 ft 402 kts 294°
2026-05-05 15:36 38.58556 15.96075 36094 ft 402 kts 294°
2026-05-05 15:36 38.60948 15.89619 36092 ft 402 kts 294°
2026-05-05 15:37 38.63341 15.83156 36090 ft 402 kts 294°
2026-05-05 15:37 38.65718 15.76684 36090 ft 402 kts 294°
2026-05-05 15:38 38.68071 15.70194 36093 ft 402 kts 294°
2026-05-05 15:38 38.70427 15.63699 36091 ft 402 kts 294°
2026-05-05 15:39 38.72786 15.57208 36092 ft 402 kts 294°
2026-05-05 15:39 38.75134 15.50702 36092 ft 402 kts 293°
2026-05-05 15:40 38.77475 15.44192 36106 ft 402 kts 293°
2026-05-05 15:40 38.79817 15.37680 36103 ft 402 kts 293°
2026-05-05 15:41 38.82155 15.31160 36094 ft 402 kts 294°
2026-05-05 15:41 38.84496 15.24643 36107 ft 402 kts 293°
2026-05-05 15:42 38.86825 15.18128 36104 ft 401 kts 293°
2026-05-05 15:42 38.89148 15.11613 36099 ft 401 kts 293°
2026-05-05 15:43 38.91469 15.05102 36097 ft 401 kts 293°
2026-05-05 15:43 38.93784 14.98590 36090 ft 401 kts 293°
2026-05-05 15:44 38.96094 14.92078 36096 ft 401 kts 293°
2026-05-05 15:44 38.98399 14.85565 36096 ft 400 kts 293°
2026-05-05 15:45 39.00698 14.79048 36098 ft 400 kts 293°
2026-05-05 15:45 39.02986 14.72531 36092 ft 400 kts 293°
2026-05-05 15:46 39.05270 14.66012 36094 ft 400 kts 293°
2026-05-05 15:46 39.07559 14.59496 36092 ft 400 kts 293°
2026-05-05 15:47 39.09828 14.53021 36092 ft 399 kts 293°
2026-05-05 15:47 39.12102 14.46493 36094 ft 399 kts 293°
2026-05-05 15:48 39.14373 14.39967 36102 ft 399 kts 293°
2026-05-05 15:48 39.16644 14.33444 36092 ft 399 kts 293°
2026-05-05 15:49 39.18902 14.26916 36091 ft 399 kts 293°
2026-05-05 15:49 39.21157 14.20384 36092 ft 399 kts 292°
2026-05-05 15:50 39.23412 14.13853 36088 ft 399 kts 292°
2026-05-05 15:50 39.25669 14.07314 36084 ft 399 kts 292°
2026-05-05 15:51 39.27917 14.00769 36076 ft 399 kts 292°
2026-05-05 15:51 39.30159 13.94222 36083 ft 399 kts 292°
2026-05-05 15:52 39.32398 13.87665 36079 ft 399 kts 292°
2026-05-05 15:52 39.34643 13.81110 36073 ft 399 kts 292°
2026-05-05 15:53 39.36879 13.74544 36069 ft 399 kts 292°
2026-05-05 15:53 39.39111 13.67965 36068 ft 399 kts 292°
2026-05-05 15:54 39.41340 13.61386 36072 ft 400 kts 292°
2026-05-05 15:54 39.43567 13.54798 36068 ft 400 kts 292°
2026-05-05 15:55 39.45789 13.48209 36069 ft 400 kts 292°
2026-05-05 15:55 39.48009 13.41602 36070 ft 400 kts 291°
2026-05-05 15:56 39.50232 13.34986 36062 ft 401 kts 291°
2026-05-05 15:56 39.52456 13.28350 36062 ft 402 kts 291°
2026-05-05 15:57 39.54673 13.21707 36062 ft 402 kts 291°
2026-05-05 15:57 39.56889 13.15053 36060 ft 402 kts 291°
2026-05-05 15:58 39.59095 13.08390 36063 ft 403 kts 291°
2026-05-05 15:58 39.60950 13.01556 36057 ft 402 kts 285°
2026-05-05 15:59 39.62594 12.94621 36058 ft 402 kts 286°
2026-05-05 15:59 39.64238 12.87682 36057 ft 403 kts 285°
2026-05-05 16:00 39.65859 12.80778 36058 ft 403 kts 285°
2026-05-05 16:00 39.67495 12.73777 36071 ft 402 kts 285°
2026-05-05 16:01 39.69111 12.66888 36073 ft 401 kts 285°
2026-05-05 16:01 39.70734 12.59963 36071 ft 400 kts 285°
2026-05-05 16:02 39.72349 12.53047 36071 ft 400 kts 285°
2026-05-05 16:02 39.73956 12.46133 36069 ft 400 kts 285°
2026-05-05 16:03 39.75550 12.39214 36069 ft 399 kts 284°
2026-05-05 16:03 39.77144 12.32298 36062 ft 399 kts 284°
2026-05-05 16:04 39.78732 12.25386 36061 ft 399 kts 284°
2026-05-05 16:04 39.80317 12.18471 36060 ft 399 kts 284°
2026-05-05 16:05 39.81899 12.11560 36059 ft 399 kts 284°
2026-05-05 16:05 39.83476 12.04642 36058 ft 399 kts 284°
2026-05-05 16:06 39.85042 11.97713 36050 ft 400 kts 284°
2026-05-05 16:06 39.86602 11.90766 36061 ft 400 kts 284°
2026-05-05 16:07 39.88177 11.83807 36053 ft 401 kts 284°
2026-05-05 16:07 39.89751 11.76845 36051 ft 401 kts 284°
2026-05-05 16:08 39.91315 11.69872 36045 ft 401 kts 284°
2026-05-05 16:08 39.92870 11.62896 36050 ft 401 kts 284°
2026-05-05 16:09 39.94424 11.55917 36044 ft 401 kts 284°
2026-05-05 16:09 39.95978 11.48935 36044 ft 401 kts 284°
2026-05-05 16:10 39.97522 11.41949 36040 ft 401 kts 283°
2026-05-05 16:10 39.99061 11.34965 36040 ft 401 kts 283°
2026-05-05 16:11 40.00604 11.27975 36054 ft 401 kts 283°
2026-05-05 16:12 40.03664 11.14021 36049 ft 400 kts 283°
2026-05-05 16:13 40.07449 10.96594 36043 ft 399 kts 283°
2026-05-05 16:13 40.08700 10.90811 36039 ft 399 kts 283°
2026-05-05 16:14 40.11698 10.76866 36034 ft 399 kts 283°
2026-05-05 16:15 40.14688 10.62910 36030 ft 399 kts 283°
2026-05-05 16:16 40.18062 10.49089 36040 ft 400 kts 288°
2026-05-05 16:17 40.21102 10.38928 36019 ft 400 kts 288°
2026-05-05 16:18 40.24100 10.28755 36016 ft 399 kts 287°
2026-05-05 16:19 40.27095 10.18573 36019 ft 400 kts 287°
2026-05-05 16:19 40.30078 10.08413 36009 ft 401 kts 287°
2026-05-05 16:20 40.34062 9.94767 36006 ft 401 kts 287°
2026-05-05 16:22 40.39019 9.77700 36015 ft 400 kts 287°
2026-05-05 16:23 40.42958 9.64077 36007 ft 399 kts 287°
2026-05-05 16:23 40.45890 9.53858 36004 ft 399 kts 286°
2026-05-05 16:24 40.47837 9.47042 35998 ft 398 kts 287°
2026-05-05 16:25 40.50759 9.36796 35976 ft 400 kts 286°
2026-05-05 16:25 40.53693 9.26486 35989 ft 402 kts 286°
2026-05-05 16:26 40.57591 9.12705 36008 ft 401 kts 285°
2026-05-05 16:27 40.59534 9.05830 36007 ft 401 kts 285°
2026-05-05 16:27 40.61470 8.98959 36002 ft 400 kts 285°
2026-05-05 16:28 40.63392 8.92085 35997 ft 400 kts 285°
2026-05-05 16:28 40.65307 8.85207 35995 ft 400 kts 285°
2026-05-05 16:29 40.67225 8.78333 35992 ft 400 kts 285°
2026-05-05 16:29 40.69141 8.71452 36006 ft 400 kts 284°
2026-05-05 16:30 40.71035 8.64621 36000 ft 399 kts 284°
2026-05-05 16:30 40.72940 8.57748 35989 ft 399 kts 284°
2026-05-05 16:31 40.74837 8.50877 35987 ft 399 kts 284°
2026-05-05 16:31 40.76723 8.44001 35985 ft 399 kts 284°
2026-05-05 16:32 40.78611 8.37119 35981 ft 399 kts 284°
2026-05-05 16:32 40.80495 8.30236 35999 ft 399 kts 283°
2026-05-05 16:33 40.82370 8.23349 35986 ft 399 kts 283°
2026-05-05 16:33 40.84212 8.16451 35990 ft 398 kts 283°
2026-05-05 16:34 40.85800 8.09492 35987 ft 391 kts 273°
2026-05-05 16:34 40.86152 8.02422 35957 ft 386 kts 268°
2026-05-05 16:35 40.86362 7.95322 36082 ft 386 kts 267°
2026-05-05 16:35 40.86649 7.88239 35981 ft 387 kts 271°
2026-05-05 16:36 40.87380 7.81210 35937 ft 386 kts 272°
2026-05-05 16:36 40.88044 7.74170 35932 ft 386 kts 271°
2026-05-05 16:37 40.88543 7.67113 35936 ft 386 kts 270°
2026-05-05 16:37 40.88984 7.60036 35946 ft 386 kts 270°
2026-05-05 16:38 40.89434 7.52947 35983 ft 388 kts 269°
2026-05-05 16:38 40.89900 7.45840 35967 ft 389 kts 269°
2026-05-05 16:39 40.90367 7.38718 35966 ft 389 kts 269°
2026-05-05 16:39 40.90828 7.31594 35965 ft 389 kts 269°
2026-05-05 16:40 40.91283 7.24462 35959 ft 389 kts 269°
2026-05-05 16:40 40.91731 7.17322 35964 ft 390 kts 269°
2026-05-05 16:41 40.92170 7.10229 35960 ft 390 kts 269°
2026-05-05 16:41 40.92609 7.03083 35955 ft 390 kts 269°
2026-05-05 16:42 40.93048 6.95939 35960 ft 390 kts 269°
2026-05-05 16:42 40.93481 6.88792 35961 ft 390 kts 269°
2026-05-05 16:43 40.93910 6.81640 35978 ft 390 kts 269°
2026-05-05 16:43 40.94335 6.74488 35964 ft 390 kts 269°
2026-05-05 16:44 40.94753 6.67335 35962 ft 390 kts 269°
2026-05-05 16:44 40.95168 6.60184 35959 ft 390 kts 269°
2026-05-05 16:45 40.95579 6.53029 35956 ft 390 kts 269°
2026-05-05 16:45 40.95984 6.45873 35971 ft 390 kts 269°
2026-05-05 16:46 40.96381 6.38719 35955 ft 390 kts 269°
2026-05-05 16:46 40.96782 6.31565 35951 ft 390 kts 269°
2026-05-05 16:47 40.97170 6.24415 35951 ft 390 kts 268°
2026-05-05 16:47 40.97556 6.17256 35947 ft 390 kts 269°
2026-05-05 16:48 40.97944 6.10105 35943 ft 390 kts 268°
2026-05-05 16:48 40.98326 6.02947 35959 ft 390 kts 268°
2026-05-05 16:49 40.98697 5.95838 35950 ft 390 kts 268°
2026-05-05 16:49 40.99074 5.88634 35940 ft 390 kts 268°
2026-05-05 16:50 40.99257 5.85056 35825 ft 390 kts 268°
2026-05-05 16:50 40.99436 5.81479 35569 ft 389 kts 268°
2026-05-05 16:50 40.99614 5.77900 35318 ft 390 kts 268°
2026-05-05 16:50 40.99797 5.74314 35068 ft 391 kts 268°
2026-05-05 16:51 40.99977 5.70726 34850 ft 391 kts 267°
2026-05-05 16:51 41.00153 5.67182 34610 ft 391 kts 267°
2026-05-05 16:51 41.00330 5.63594 34368 ft 391 kts 267°
2026-05-05 16:51 41.00505 5.60007 34124 ft 391 kts 267°
2026-05-05 16:52 41.00682 5.56409 33878 ft 392 kts 267°
2026-05-05 16:52 41.00860 5.52809 33612 ft 392 kts 267°
2026-05-05 16:52 41.01037 5.49202 33342 ft 393 kts 267°
2026-05-05 16:52 41.01211 5.45592 33074 ft 393 kts 267°
2026-05-05 16:53 41.01378 5.41976 32806 ft 394 kts 267°
2026-05-05 16:53 41.01544 5.38350 32545 ft 395 kts 267°
2026-05-05 16:53 41.01721 5.34723 32283 ft 396 kts 268°
2026-05-05 16:53 41.01912 5.31084 32058 ft 395 kts 268°
2026-05-05 16:54 41.02108 5.27458 31791 ft 395 kts 268°
2026-05-05 16:54 41.02304 5.23832 31551 ft 395 kts 268°
2026-05-05 16:54 41.02496 5.20206 31300 ft 395 kts 268°
2026-05-05 16:54 41.02685 5.16574 31045 ft 396 kts 268°
2026-05-05 16:55 41.02873 5.12929 30799 ft 396 kts 268°
2026-05-05 16:55 41.03060 5.09296 30555 ft 395 kts 268°
2026-05-05 16:55 41.03245 5.05669 30314 ft 394 kts 268°
2026-05-05 16:55 41.03426 5.02051 30074 ft 393 kts 268°
2026-05-05 16:56 41.03603 4.98455 29816 ft 391 kts 268°
2026-05-05 16:56 41.03779 4.94865 29569 ft 389 kts 268°
2026-05-05 16:56 41.03953 4.91302 29283 ft 387 kts 268°
2026-05-05 16:56 41.04127 4.87756 29009 ft 385 kts 268°
2026-05-05 16:57 41.04302 4.84224 28726 ft 384 kts 268°
2026-05-05 16:57 41.04475 4.80704 28454 ft 382 kts 268°
2026-05-05 16:57 41.04652 4.77192 28185 ft 381 kts 269°
2026-05-05 16:57 41.04916 4.73695 27918 ft 382 kts 271°
2026-05-05 16:58 41.05264 4.70222 27659 ft 377 kts 272°
2026-05-05 16:58 41.05655 4.66813 27395 ft 375 kts 272°
2026-05-05 16:58 41.06061 4.63383 27136 ft 378 kts 272°
2026-05-05 16:58 41.06467 4.59943 26879 ft 377 kts 272°
2026-05-05 16:59 41.06860 4.56511 26644 ft 376 kts 272°
2026-05-05 16:59 41.07239 4.53100 26396 ft 371 kts 272°
2026-05-05 16:59 41.07603 4.49763 26145 ft 362 kts 272°
2026-05-05 16:59 41.07838 4.47573 25983 ft 364 kts 272°
2026-05-05 17:00 41.08189 4.44235 25735 ft 367 kts 272°
2026-05-05 17:00 41.08541 4.40881 25494 ft 367 kts 272°
2026-05-05 17:00 41.08894 4.37531 25251 ft 366 kts 272°
2026-05-05 17:00 41.09360 4.33113 24933 ft 365 kts 272°
2026-05-05 17:01 41.09712 4.29795 24697 ft 364 kts 272°
2026-05-05 17:01 41.10066 4.26468 24461 ft 363 kts 272°
2026-05-05 17:01 41.10304 4.24235 24305 ft 362 kts 272°
2026-05-05 17:01 41.10656 4.20930 24070 ft 361 kts 272°
2026-05-05 17:02 41.11001 4.17637 23864 ft 359 kts 272°
2026-05-05 17:02 41.11340 4.14365 23635 ft 358 kts 272°
2026-05-05 17:02 41.11677 4.11108 23394 ft 356 kts 272°
2026-05-05 17:02 41.12016 4.07857 23118 ft 355 kts 272°
2026-05-05 17:03 41.12355 4.04614 22849 ft 355 kts 272°
2026-05-05 17:03 41.12692 4.01379 22579 ft 354 kts 272°
2026-05-05 17:03 41.13025 3.98148 22311 ft 353 kts 272°
2026-05-05 17:03 41.13354 3.94924 22047 ft 352 kts 272°
2026-05-05 17:04 41.13682 3.91708 21779 ft 352 kts 272°
2026-05-05 17:04 41.14003 3.88538 21525 ft 350 kts 272°
2026-05-05 17:04 41.14326 3.85376 21205 ft 343 kts 272°
2026-05-05 17:04 41.14643 3.82262 20780 ft 338 kts 272°
2026-05-05 17:05 41.14955 3.79185 20369 ft 335 kts 272°
2026-05-05 17:05 41.15261 3.76144 19940 ft 331 kts 272°
2026-05-05 17:05 41.15563 3.73128 19525 ft 330 kts 272°
2026-05-05 17:05 41.15861 3.70100 19101 ft 331 kts 272°
2026-05-05 17:06 41.16160 3.67072 18687 ft 331 kts 272°
2026-05-05 17:06 41.16459 3.64045 18265 ft 330 kts 272°
2026-05-05 17:06 41.16756 3.61023 17809 ft 330 kts 272°
2026-05-05 17:06 41.17049 3.58011 17385 ft 329 kts 272°
2026-05-05 17:07 41.17340 3.55008 16968 ft 328 kts 272°
2026-05-05 17:07 41.17629 3.52011 16558 ft 327 kts 272°
2026-05-05 17:07 41.17917 3.49024 16146 ft 325 kts 272°
2026-05-05 17:07 41.18205 3.46049 15737 ft 324 kts 272°
2026-05-05 17:08 41.18492 3.43084 15326 ft 323 kts 272°
2026-05-05 17:08 41.18777 3.40131 14911 ft 322 kts 272°
2026-05-05 17:08 41.19059 3.37184 14503 ft 321 kts 272°
2026-05-05 17:08 41.19338 3.34247 14097 ft 320 kts 272°
2026-05-05 17:09 41.19616 3.31321 13691 ft 319 kts 272°
2026-05-05 17:09 41.19894 3.28401 13259 ft 318 kts 272°
2026-05-05 17:09 41.20170 3.25487 12850 ft 317 kts 272°
2026-05-05 17:09 41.20447 3.22587 12449 ft 316 kts 273°
2026-05-05 17:10 41.20723 3.19693 12042 ft 315 kts 273°
2026-05-05 17:10 41.20997 3.16810 11649 ft 314 kts 273°
2026-05-05 17:10 41.21267 3.13935 11250 ft 313 kts 273°
2026-05-05 17:10 41.21536 3.11074 10853 ft 312 kts 273°
2026-05-05 17:11 41.21802 3.08218 10478 ft 310 kts 273°
2026-05-05 17:11 41.22058 3.05459 10328 ft 301 kts 273°
2026-05-05 17:11 41.22312 3.02721 10217 ft 290 kts 273°
2026-05-05 17:11 41.22555 3.00099 10091 ft 280 kts 273°
2026-05-05 17:12 41.22788 2.97574 9957 ft 271 kts 273°
2026-05-05 17:12 41.23013 2.95132 9818 ft 262 kts 272°
2026-05-05 17:12 41.23227 2.92767 9691 ft 253 kts 272°
2026-05-05 17:12 41.23426 2.90481 9554 ft 245 kts 272°
2026-05-05 17:13 41.23619 2.88226 9068 ft 254 kts 272°
2026-05-05 17:13 41.23821 2.85822 8792 ft 267 kts 272°
2026-05-05 17:13 41.24030 2.83358 8493 ft 268 kts 273°
2026-05-05 17:13 41.24244 2.80900 8191 ft 267 kts 273°
2026-05-05 17:14 41.24459 2.78453 7905 ft 266 kts 274°
2026-05-05 17:14 41.24669 2.76014 7610 ft 265 kts 274°
2026-05-05 17:14 41.24875 2.73584 7324 ft 264 kts 274°
2026-05-05 17:14 41.25079 2.71164 7034 ft 263 kts 274°
2026-05-05 17:15 41.25284 2.68753 6741 ft 262 kts 274°
2026-05-05 17:15 41.25584 2.66367 6462 ft 263 kts 284°
2026-05-05 17:15 41.26294 2.64127 6177 ft 263 kts 294°
2026-05-05 17:15 41.27122 2.61951 5930 ft 264 kts 294°
2026-05-05 17:16 41.27943 2.59777 5648 ft 263 kts 294°
2026-05-05 17:16 41.28761 2.57606 5364 ft 262 kts 294°
2026-05-05 17:16 41.29574 2.55441 5069 ft 262 kts 294°
2026-05-05 17:16 41.30382 2.53275 4788 ft 261 kts 294°
2026-05-05 17:17 41.31188 2.51113 4494 ft 260 kts 294°
2026-05-05 17:17 41.31991 2.48962 4202 ft 259 kts 294°
2026-05-05 17:17 41.32790 2.46825 3931 ft 256 kts 295°
2026-05-05 17:17 41.33566 2.44747 3851 ft 246 kts 294°
2026-05-05 17:18 41.34312 2.42750 3757 ft 236 kts 294°
2026-05-05 17:18 41.35025 2.40840 3657 ft 226 kts 294°
2026-05-05 17:18 41.35709 2.39013 3561 ft 215 kts 294°
2026-05-05 17:18 41.36361 2.37273 3467 ft 204 kts 294°
2026-05-05 17:19 41.36972 2.35636 3409 ft 190 kts 294°
2026-05-05 17:19 41.37533 2.34113 3294 ft 175 kts 290°
2026-05-05 17:19 41.37782 2.32666 3233 ft 148 kts 271°
2026-05-05 17:19 41.37675 2.31359 3108 ft 139 kts 254°
2026-05-05 17:20 41.37317 2.30182 2968 ft 136 kts 246°
2026-05-05 17:20 41.36931 2.29043 2877 ft 134 kts 246°
2026-05-05 17:20 41.36545 2.27908 2796 ft 135 kts 248°
2026-05-05 17:20 41.36159 2.26770 2658 ft 136 kts 247°
2026-05-05 17:21 41.35770 2.25626 2499 ft 136 kts 246°
2026-05-05 17:21 41.35382 2.24483 2335 ft 134 kts 246°
2026-05-05 17:21 41.35003 2.23370 2158 ft 134 kts 247°
2026-05-05 17:22 41.34230 2.21099 1789 ft 136 kts 246°
2026-05-05 17:22 41.33844 2.19967 1613 ft 135 kts 247°
2026-05-05 17:22 41.33458 2.18834 1433 ft 135 kts 246°
2026-05-05 17:22 41.33067 2.17686 1249 ft 137 kts 245°
2026-05-05 17:23 41.32674 2.16533 1064 ft 137 kts 248°
2026-05-05 17:23 41.32286 2.15397 882 ft 133 kts 246°
2026-05-05 17:23 41.31904 2.14277 690 ft 133 kts 247°
2026-05-05 17:23 41.31519 2.13149 514 ft 134 kts 245°
2026-05-05 17:24 41.31131 2.12014 329 ft 134 kts 245°
2026-05-05 17:24 41.30747 2.10888 136 ft 135 kts 245°
2026-05-05 17:24 41.30365 2.09765 44 ft 126 kts 244°
2026-05-05 17:24 41.30005 2.08634 328 ft 145 kts 245°
2026-05-05 17:25 41.29536 2.07282 770 ft 174 kts 245°
2026-05-05 17:25 41.29181 2.06280 1084 ft 190 kts 245°
2026-05-05 17:25 41.28551 2.03938 1838 ft 219 kts 259°
2026-05-05 17:25 41.28525 2.01860 2700 ft 222 kts 274°
2026-05-05 17:26 41.28697 1.99659 3004 ft 261 kts 282°
2026-05-05 17:26 41.29476 1.97496 2989 ft 252 kts 310°
2026-05-05 17:26 41.30837 1.96270 2997 ft 227 kts 342°
2026-05-05 17:26 41.32344 1.96245 3009 ft 217 kts 12°
2026-05-05 17:27 41.33786 1.96895 3008 ft 220 kts 19°
2026-05-05 17:27 41.35200 1.97669 3016 ft 220 kts 19°
2026-05-05 17:27 41.36579 1.98445 2991 ft 208 kts 19°
2026-05-05 17:27 41.37869 1.99194 2995 ft 198 kts 21°
2026-05-05 17:28 41.39130 1.99937 3011 ft 197 kts 24°
2026-05-05 17:28 41.40236 2.01020 3008 ft 199 kts 40°
2026-05-05 17:28 41.41251 2.02292 3055 ft 203 kts 41°
2026-05-05 17:28 41.42192 2.03617 2991 ft 192 kts 55°
2026-05-05 17:29 41.42642 2.05213 2965 ft 181 kts 84°
2026-05-05 17:29 41.42509 2.06849 2719 ft 177 kts 103°
2026-05-05 17:29 41.42216 2.08443 2438 ft 176 kts 108°
2026-05-05 17:29 41.41786 2.09977 2244 ft 177 kts 114°
2026-05-05 17:30 41.41304 2.11479 2090 ft 175 kts 115°
2026-05-05 17:30 41.40985 2.13037 2179 ft 173 kts 100°
2026-05-05 17:30 41.40815 2.14523 2240 ft 156 kts 99°
2026-05-05 17:30 41.40656 2.15948 2281 ft 153 kts 99°
2026-05-05 17:31 41.40470 2.17446 2309 ft 175 kts 101°
2026-05-05 17:31 41.40252 2.19080 2311 ft 181 kts 101°
2026-05-05 17:31 41.40015 2.20728 2189 ft 184 kts 102°
2026-05-05 17:31 41.39678 2.22351 1956 ft 180 kts 118°
2026-05-05 17:32 41.38862 2.23548 1741 ft 174 kts 147°
2026-05-05 17:32 41.37771 2.24159 1642 ft 169 kts 173°
2026-05-05 17:32 41.36612 2.24152 1611 ft 167 kts 193°
2026-05-05 17:32 41.35561 2.23573 1604 ft 157 kts 214°
2026-05-05 17:33 41.34822 2.22632 1602 ft 141 kts 234°
2026-05-05 17:33 41.34368 2.21509 1607 ft 137 kts 246°
2026-05-05 17:33 41.33982 2.20373 1555 ft 136 kts 246°
2026-05-05 17:33 41.33590 2.19223 1444 ft 135 kts 247°
2026-05-05 17:34 41.33202 2.18081 1288 ft 134 kts 246°
2026-05-05 17:34 41.32817 2.16952 1107 ft 134 kts 246°
2026-05-05 17:34 41.32432 2.15825 942 ft 133 kts 248°
2026-05-05 17:34 41.32053 2.14714 764 ft 131 kts 246°
2026-05-05 17:35 41.31671 2.13593 591 ft 135 kts 246°
2026-05-05 17:35 41.31287 2.12471 407 ft 133 kts 245°
2026-05-05 17:35 41.30903 2.11354 208 ft 133 kts 244°
2026-05-05 17:35 41.30529 2.10226 59 ft 133 kts 245°
2026-05-05 17:36 41.30182 2.09133 18 ft 112 kts 240°
2026-05-05 17:36 41.29924 2.08490 25 ft 63 kts 243°
2026-05-05 17:36 41.29782 2.08116 19 ft 26 kts 250°
2026-05-05 17:36 41.29696 2.07935 16 ft 19 kts 224°
2026-05-05 17:37 41.29615 2.07848 16 ft 13 kts 215°
2026-05-05 17:37 41.29573 2.07810 16 ft 10 kts 215°
2026-05-05 17:37 41.29486 2.07724 16 ft 13 kts 217°
2026-05-05 17:37 41.29405 2.07693 16 ft 9 kts 186°
2026-05-05 17:38 41.29374 2.07693 16 ft 4 kts 163°
2026-05-05 17:38 41.29348 2.07730 17 ft 6 kts 131°
2026-05-05 17:38 41.29311 2.07758 18 ft 6 kts 156°
2026-05-05 17:38 41.29267 2.07784 20 ft 8 kts 155°
2026-05-05 17:39 41.29217 2.07815 21 ft 7 kts 153°
2026-05-05 17:39 41.29187 2.07863 19 ft 6 kts 148°
2026-05-05 17:39 41.29157 2.07880 20 ft 4 kts 156°
2026-05-05 17:39 41.29135 2.07893 19 ft 0 kts 155°